Time,TemperatureF,DewpointF,PressureIn,WindDirection,WindDirectionDegrees,WindSpeedMPH,WindSpeedGustMPH,Humidity,HourlyPrecipIn,Conditions,Clouds,dailyrainin,SoftwareType,DateUTC
2013-06-15 06:12:00,51.6,41.4,29.93,SE,135,3.8,3.8,68,0.00,CLR,,0.00,WeatherDisplay:10.37,2013-06-15 13:12:00,
2013-06-15 06:18:00,51.6,41.4,29.93,SE,135,1.6,0.0,68,0.00,CLR,,0.00,WeatherDisplay:10.37,2013-06-15 13:18:00,
2013-06-15 12:20:00,67.6,67.6,29.97,North,0,5.8,0.0,100,0.00,CLR,,0.00,WeatherDisplay:10.37,2013-06-15 19:20:00,
2013-06-15 12:35:00,68.4,68.4,29.97,West,270,3.5,3.5,100,0.00,CLR,,0.00,WeatherDisplay:10.37,2013-06-15 19:35:00,
2013-06-15 12:40:00,69.8,69.8,29.97,West,270,6.9,6.9,100,0.00,CLR,,0.00,WeatherDisplay:10.37,2013-06-15 19:40:00,
2013-06-15 12:45:00,69.1,69.1,29.97,North,0,5.8,5.8,100,0.00,CLR,,0.00,WeatherDisplay:10.37,2013-06-15 19:45:00,
2013-06-15 12:53:00,69.6,69.6,29.97,West,270,6.9,6.9,100,0.00,CLR,,0.00,WeatherDisplay:10.37,2013-06-15 19:53:00,
2013-06-15 12:58:00,69.1,69.1,29.97,NW,315,3.5,3.5,100,0.00,CLR,,0.00,WeatherDisplay:10.37,2013-06-15 19:58:00,
2013-06-15 13:03:00,69.4,69.4,29.97,West,270,6.9,6.9,100,0.00,CLR,,0.00,WeatherDisplay:10.37,2013-06-15 20:03:00,
2013-06-15 13:09:00,69.6,69.6,29.98,West,270,4.6,4.6,100,0.00,CLR,,0.00,WeatherDisplay:10.37,2013-06-15 20:09:00,
2013-06-15 13:14:00,70.2,70.2,29.97,NW,315,4.6,4.6,100,0.00,CLR,,0.00,WeatherDisplay:10.37,2013-06-15 20:14:00,
2013-06-15 13:19:00,70.9,70.9,29.97,NW,315,5.8,5.8,100,0.00,CLR,,0.00,WeatherDisplay:10.37,2013-06-15 20:19:00,
2013-06-15 13:24:00,71.1,71.1,29.97,NW,315,8.1,8.1,100,0.00,CLR,,0.00,WeatherDisplay:10.37,2013-06-15 20:24:00,
2013-06-15 13:29:00,70.7,70.7,29.97,South,180,5.8,5.8,100,0.00,CLR,,0.00,WeatherDisplay:10.37,2013-06-15 20:29:00,
2013-06-15 13:34:00,70.5,70.5,29.97,SW,225,5.8,5.8,100,0.00,CLR,,0.00,WeatherDisplay:10.37,2013-06-15 20:34:00,
2013-06-15 13:39:00,70.5,70.5,29.98,NW,315,6.9,6.9,100,0.00,CLR,,0.00,WeatherDisplay:10.37,2013-06-15 20:39:00,
2013-06-15 13:44:00,70.2,70.2,29.98,NW,315,6.9,6.9,100,0.00,CLR,,0.00,WeatherDisplay:10.37,2013-06-15 20:44:00,
2013-06-15 13:49:00,69.8,69.8,29.98,West,270,6.9,0.0,100,0.00,CLR,,0.00,WeatherDisplay:10.37,2013-06-15 20:49:00,
2013-06-15 13:54:00,69.8,69.8,29.98,North,0,5.8,5.8,100,0.00,CLR,,0.00,WeatherDisplay:10.37,2013-06-15 20:54:00,
2013-06-15 14:00:00,69.1,69.1,29.98,WNW,292,8.1,8.1,100,0.00,CLR,,0.00,WeatherDisplay:10.37,2013-06-15 21:00:00,
2013-06-15 14:05:00,68.2,68.2,29.99,NW,315,9.2,9.2,100,0.00,CLR,,0.00,WeatherDisplay:10.37,2013-06-15 21:05:00,
2013-06-15 14:10:00,68.0,68.0,29.98,South,180,5.8,5.8,100,0.00,CLR,,0.00,WeatherDisplay:10.37,2013-06-15 21:10:00,
2013-06-15 14:15:00,69.8,69.8,29.98,NW,315,8.1,8.1,100,0.00,CLR,,0.00,WeatherDisplay:10.37,2013-06-15 21:15:00,
2013-06-15 14:20:00,70.3,70.3,29.98,NW,315,4.6,4.6,100,0.00,CLR,,0.00,WeatherDisplay:10.37,2013-06-15 21:20:00,
2013-06-15 14:25:00,70.7,70.7,29.98,NW,315,3.5,3.5,100,0.00,CLR,,0.00,WeatherDisplay:10.37,2013-06-15 21:25:00,
2013-06-15 14:30:00,71.4,71.4,29.98,West,270,4.6,4.6,100,0.00,CLR,,0.00,WeatherDisplay:10.37,2013-06-15 21:30:00,
2013-06-15 14:35:00,70.3,70.3,29.98,NW,315,5.8,5.8,100,0.00,CLR,,0.00,WeatherDisplay:10.37,2013-06-15 21:35:00,
2013-06-15 14:40:00,69.3,69.3,29.98,NW,315,5.8,5.8,100,0.00,CLR,,0.00,WeatherDisplay:10.37,2013-06-15 21:40:00,
2013-06-15 14:45:00,69.1,69.1,29.98,SW,225,4.6,4.6,100,0.00,CLR,,0.00,WeatherDisplay:10.37,2013-06-15 21:45:00,
2013-06-15 14:51:00,69.4,69.4,29.98,North,0,4.6,4.6,100,0.00,CLR,,0.00,WeatherDisplay:10.37,2013-06-15 21:51:00,
2013-06-15 14:56:00,69.8,69.8,29.98,NW,315,6.9,6.9,100,0.00,CLR,,0.00,WeatherDisplay:10.37,2013-06-15 21:56:00,
2013-06-15 15:01:00,69.3,69.3,29.98,SW,225,4.6,4.6,100,0.00,CLR,,0.00,WeatherDisplay:10.37,2013-06-15 22:01:00,
2013-06-15 15:06:00,68.2,68.2,29.98,East,90,4.6,4.6,100,0.00,CLR,,0.00,WeatherDisplay:10.37,2013-06-15 22:06:00,
2013-06-15 15:11:00,68.2,68.2,29.98,NW,315,6.9,6.9,100,0.00,CLR,,0.00,WeatherDisplay:10.37,2013-06-15 22:11:00,
2013-06-15 15:16:00,68.7,68.7,29.98,NE,45,6.9,6.9,100,0.00,CLR,,0.00,WeatherDisplay:10.37,2013-06-15 22:16:00,
2013-06-15 15:21:00,68.7,68.7,29.98,NW,315,8.1,8.1,100,0.00,CLR,,0.00,WeatherDisplay:10.37,2013-06-15 22:21:00,
2013-06-15 15:26:00,67.8,67.8,29.98,NE,45,3.5,3.5,100,0.00,CLR,,0.00,WeatherDisplay:10.37,2013-06-15 22:26:00,
2013-06-15 15:31:00,67.6,67.6,29.98,SW,225,3.5,3.5,100,0.00,CLR,,0.00,WeatherDisplay:10.37,2013-06-15 22:31:00,
2013-06-15 15:36:00,67.8,67.8,29.98,NW,315,5.8,5.8,100,0.00,CLR,,0.00,WeatherDisplay:10.37,2013-06-15 22:36:00,
2013-06-15 15:42:00,66.6,66.6,29.99,West,270,6.9,6.9,100,0.00,CLR,,0.00,WeatherDisplay:10.37,2013-06-15 22:42:00,
2013-06-15 15:47:00,66.2,66.2,29.99,West,270,10.4,10.4,100,0.00,CLR,,0.00,WeatherDisplay:10.37,2013-06-15 22:47:00,
2013-06-15 15:52:00,65.8,65.8,29.98,SW,225,8.1,8.1,100,0.00,CLR,,0.00,WeatherDisplay:10.37,2013-06-15 22:52:00,
2013-06-15 15:57:00,66.9,66.9,29.99,West,270,5.8,5.8,100,0.00,CLR,,0.00,WeatherDisplay:10.37,2013-06-15 22:57:00,
2013-06-15 16:02:00,66.9,66.9,29.99,North,0,8.1,8.1,100,0.00,CLR,,0.00,WeatherDisplay:10.37,2013-06-15 23:02:00,
2013-06-15 16:07:00,66.9,66.9,29.99,West,270,5.8,5.8,100,0.00,CLR,,0.00,WeatherDisplay:10.37,2013-06-15 23:07:00,
2013-06-15 16:12:00,66.6,66.6,29.98,West,270,8.1,8.1,100,0.00,CLR,,0.00,WeatherDisplay:10.37,2013-06-15 23:12:00,
2013-06-15 16:17:00,65.8,65.8,29.98,NW,315,5.8,5.8,100,0.00,CLR,,0.00,WeatherDisplay:10.37,2013-06-15 23:17:00,
2013-06-15 16:22:00,66.0,66.0,29.98,West,270,6.0,6.0,100,0.00,CLR,,0.00,WeatherDisplay:10.37,2013-06-15 23:22:00,
2013-06-15 16:27:00,66.2,66.2,29.98,South,180,3.5,3.5,100,0.00,CLR,,0.00,WeatherDisplay:10.37,2013-06-15 23:27:00,
2013-06-15 16:33:00,66.4,66.4,29.98,West,270,5.8,5.8,100,0.00,CLR,,0.00,WeatherDisplay:10.37,2013-06-15 23:33:00,
2013-06-15 16:38:00,65.5,65.5,29.98,SW,225,6.9,6.9,100,0.00,CLR,,0.00,WeatherDisplay:10.37,2013-06-15 23:38:00,
2013-06-15 16:43:00,65.5,65.5,29.98,West,270,5.8,0.0,100,0.00,CLR,,0.00,WeatherDisplay:10.37,2013-06-15 23:43:00,
2013-06-15 16:48:00,65.5,65.5,29.98,NW,315,5.8,5.8,100,0.00,CLR,,0.00,WeatherDisplay:10.37,2013-06-15 23:48:00,
2013-06-15 16:53:00,66.0,66.0,29.98,West,270,3.5,3.5,100,0.00,CLR,,0.00,WeatherDisplay:10.37,2013-06-15 23:53:00,
2013-06-15 16:58:00,65.8,65.8,29.99,West,270,8.1,8.1,100,0.00,CLR,,0.00,WeatherDisplay:10.37,2013-06-15 23:58:00,
2013-06-15 17:03:00,65.1,65.1,29.99,West,270,8.1,8.1,100,0.00,CLR,,0.00,WeatherDisplay:10.37,2013-06-16 00:03:00,
2013-06-15 17:08:00,64.4,64.4,29.99,SW,225,8.1,8.1,100,0.00,CLR,,0.00,WeatherDisplay:10.37,2013-06-16 00:08:00,
2013-06-15 17:13:00,64.6,64.6,29.99,West,270,3.5,4.5,100,0.00,CLR,,0.00,WeatherDisplay:10.37,2013-06-16 00:13:00,
2013-06-15 17:19:00,63.3,63.3,29.99,West,270,8.1,8.1,100,0.00,CLR,,0.00,WeatherDisplay:10.37,2013-06-16 00:19:00,
2013-06-15 17:24:00,63.1,63.1,29.99,West,270,4.6,4.6,100,0.00,CLR,,0.00,WeatherDisplay:10.37,2013-06-16 00:24:00,
2013-06-15 17:29:00,63.1,63.1,29.99,West,270,5.8,5.8,100,0.00,CLR,,0.00,WeatherDisplay:10.37,2013-06-16 00:29:00,
2013-06-15 17:34:00,62.8,62.8,29.99,SW,225,5.8,5.8,100,0.00,CLR,,0.00,WeatherDisplay:10.37,2013-06-16 00:34:00,
2013-06-15 17:39:00,62.6,62.6,29.99,North,0,5.8,5.8,100,0.00,CLR,,0.00,WeatherDisplay:10.37,2013-06-16 00:39:00,
2013-06-15 17:44:00,62.6,62.6,29.99,NW,315,3.5,3.5,100,0.00,CLR,,0.00,WeatherDisplay:10.37,2013-06-16 00:44:00,
2013-06-15 17:49:00,62.6,62.6,29.99,West,270,2.3,3.8,100,0.00,CLR,,0.00,WeatherDisplay:10.37,2013-06-16 00:49:00,
2013-06-15 17:54:00,62.4,62.4,30.00,West,270,3.5,3.5,100,0.00,CLR,,0.00,WeatherDisplay:10.37,2013-06-16 00:54:00,
2013-06-15 17:59:00,62.1,62.1,30.00,NW,315,3.5,4.5,100,0.00,CLR,,0.00,WeatherDisplay:10.37,2013-06-16 00:59:00,
2013-06-15 18:04:00,61.9,61.9,30.00,West,270,6.9,6.9,100,0.00,CLR,,0.00,WeatherDisplay:10.37,2013-06-16 01:04:00,
2013-06-15 18:10:00,61.2,61.2,30.00,West,270,6.9,6.9,100,0.00,CLR,,0.00,WeatherDisplay:10.37,2013-06-16 01:10:00,
2013-06-15 18:15:00,61.2,61.2,30.00,West,270,4.6,4.6,100,0.00,CLR,,0.00,WeatherDisplay:10.37,2013-06-16 01:15:00,
2013-06-15 18:20:00,61.2,61.2,30.00,NW,315,3.5,3.5,100,0.00,CLR,,0.00,WeatherDisplay:10.37,2013-06-16 01:20:00,
2013-06-15 18:25:00,61.2,61.2,30.00,SW,225,5.8,5.8,100,0.00,CLR,,0.00,WeatherDisplay:10.37,2013-06-16 01:25:00,
2013-06-15 18:30:00,61.3,61.3,30.00,West,270,1.2,0.0,100,0.00,CLR,,0.00,WeatherDisplay:10.37,2013-06-16 01:30:00,
2013-06-15 18:35:00,61.7,61.7,30.00,NW,315,2.3,2.3,100,0.00,CLR,,0.00,WeatherDisplay:10.37,2013-06-16 01:35:00,
2013-06-15 18:40:00,61.3,61.3,30.01,North,0,5.8,5.8,100,0.00,CLR,,0.00,WeatherDisplay:10.37,2013-06-16 01:40:00,
2013-06-15 18:45:00,61.0,61.0,30.01,West,270,4.6,4.6,100,0.00,CLR,,0.00,WeatherDisplay:10.37,2013-06-16 01:45:00,
2013-06-15 18:50:00,60.4,60.4,30.01,West,270,2.3,2.3,100,0.00,CLR,,0.00,WeatherDisplay:10.37,2013-06-16 01:50:00,
2013-06-15 18:55:00,60.1,60.1,30.01,West,270,6.9,6.9,100,0.00,CLR,,0.00,WeatherDisplay:10.37,2013-06-16 01:55:00,
2013-06-15 19:01:00,59.9,59.9,30.01,NE,45,3.5,3.5,100,0.00,CLR,,0.00,WeatherDisplay:10.37,2013-06-16 02:01:00,
2013-06-15 19:06:00,60.1,60.1,30.02,NW,315,3.5,3.5,100,0.00,CLR,,0.00,WeatherDisplay:10.37,2013-06-16 02:06:00,
2013-06-15 19:11:00,59.9,59.9,30.02,NW,315,4.6,0.0,100,0.00,CLR,,0.00,WeatherDisplay:10.37,2013-06-16 02:11:00,
2013-06-15 19:16:00,59.5,59.5,30.02,SW,225,5.8,5.8,100,0.00,CLR,,0.00,WeatherDisplay:10.37,2013-06-16 02:16:00,
2013-06-15 19:21:00,59.0,59.0,30.02,East,90,3.5,3.5,100,0.00,CLR,,0.00,WeatherDisplay:10.37,2013-06-16 02:21:00,
2013-06-15 19:26:00,58.8,58.8,30.02,North,0,4.6,0.0,100,0.00,CLR,,0.00,WeatherDisplay:10.37,2013-06-16 02:26:00,
2013-06-15 19:31:00,59.0,59.0,30.02,West,270,3.5,3.5,100,0.00,CLR,,0.00,WeatherDisplay:10.37,2013-06-16 02:31:00,
2013-06-15 19:36:00,58.8,58.8,30.02,North,0,3.5,3.5,100,0.00,CLR,,0.00,WeatherDisplay:10.37,2013-06-16 02:36:00,
2013-06-15 19:41:00,58.6,58.6,30.02,West,270,2.3,0.0,100,0.00,CLR,,0.00,WeatherDisplay:10.37,2013-06-16 02:41:00,
2013-06-15 19:46:00,58.5,58.5,30.02,SW,225,3.5,3.5,100,0.00,CLR,,0.00,WeatherDisplay:10.37,2013-06-16 02:46:00,
2013-06-15 19:52:00,58.3,58.3,30.02,West,270,1.2,0.0,100,0.00,CLR,,0.00,WeatherDisplay:10.37,2013-06-16 02:52:00,
2013-06-15 19:57:00,58.3,58.3,30.03,West,270,2.3,2.3,100,0.00,CLR,,0.00,WeatherDisplay:10.37,2013-06-16 02:57:00,
2013-06-15 20:02:00,58.1,58.1,30.02,NW,315,3.5,3.5,100,0.00,CLR,,0.00,WeatherDisplay:10.37,2013-06-16 03:02:00,
2013-06-15 20:07:00,57.9,57.9,30.02,NE,45,1.2,1.2,100,0.00,CLR,,0.00,WeatherDisplay:10.37,2013-06-16 03:07:00,
2013-06-15 20:12:00,57.9,57.9,30.03,NW,315,2.3,0.0,100,0.00,CLR,,0.00,WeatherDisplay:10.37,2013-06-16 03:12:00,
2013-06-15 20:17:00,57.7,57.7,30.02,NW,315,4.6,4.6,100,0.00,CLR,,0.00,WeatherDisplay:10.37,2013-06-16 03:17:00,
2013-06-15 20:22:00,57.6,57.6,30.03,NW,315,3.5,3.5,100,0.00,CLR,,0.00,WeatherDisplay:10.37,2013-06-16 03:22:00,
2013-06-15 20:27:00,57.4,57.4,30.03,West,270,3.5,0.0,100,0.00,CLR,,0.00,WeatherDisplay:10.37,2013-06-16 03:27:00,
2013-06-15 20:32:00,57.2,57.2,30.03,West,270,1.2,0.0,100,0.00,CLR,,0.00,WeatherDisplay:10.37,2013-06-16 03:32:00,
2013-06-15 20:37:00,57.2,57.2,30.03,West,270,2.3,2.3,100,0.00,CLR,,0.00,WeatherDisplay:10.37,2013-06-16 03:37:00,
2013-06-15 20:43:00,57.0,57.0,30.03,West,270,3.5,3.5,100,0.00,CLR,,0.00,WeatherDisplay:10.37,2013-06-16 03:43:00,
2013-06-15 20:48:00,56.8,56.8,30.03,SW,225,2.3,0.0,100,0.00,CLR,,0.00,WeatherDisplay:10.37,2013-06-16 03:48:00,
2013-06-15 20:53:00,56.7,56.7,30.03,SW,225,1.2,0.0,100,0.00,CLR,,0.00,WeatherDisplay:10.37,2013-06-16 03:53:00,
2013-06-15 20:58:00,56.7,56.7,30.03,SW,225,1.2,0.0,100,0.00,CLR,,0.00,WeatherDisplay:10.37,2013-06-16 03:58:00,
2013-06-15 21:01:00,56.7,56.7,30.03,SW,225,1.2,0.0,100,0.00,CLR,,0.00,WeatherDisplay:10.37,2013-06-16 04:01:00,
2013-06-15 21:02:00,56.7,56.7,30.03,SW,225,1.2,0.0,100,0.00,CLR,,0.00,WeatherDisplay:10.37,2013-06-16 04:02:00,
2013-06-15 21:03:00,56.5,56.5,30.03,SW,225,2.2,2.2,100,0.00,CLR,,0.00,WeatherDisplay:10.37,2013-06-16 04:03:00,
2013-06-15 21:04:00,56.5,56.5,30.03,SW,225,2.3,2.3,100,0.00,CLR,,0.00,WeatherDisplay:10.37,2013-06-16 04:04:00,
2013-06-15 21:05:00,56.5,56.5,30.03,SW,225,3.5,3.5,100,0.00,CLR,,0.00,WeatherDisplay:10.37,2013-06-16 04:05:00,
2013-06-15 21:10:00,56.5,56.5,30.03,SW,225,1.2,0.0,100,0.00,CLR,,0.00,WeatherDisplay:10.37,2013-06-16 04:10:00,
2013-06-15 21:15:00,56.3,0.3,30.03,SW,225,1.2,0.0,10,0.00,CLR,,0.00,WeatherDisplay:10.37,2013-06-16 04:15:00,
2013-06-15 21:20:00,56.3,2.4,30.03,West,270,1.2,0.0,11,0.00,CLR,,0.00,WeatherDisplay:10.37,2013-06-16 04:20:00,
2013-06-15 21:25:00,56.1,2.2,30.04,South,180,1.2,0.0,11,0.00,CLR,,0.00,WeatherDisplay:10.37,2013-06-16 04:25:00,
2013-06-15 21:30:00,55.9,7.3,30.04,SW,225,2.3,0.0,14,0.00,CLR,,0.00,WeatherDisplay:10.37,2013-06-16 04:30:00,
2013-06-15 21:35:00,55.9,10.3,30.04,SW,225,1.2,0.0,16,0.00,CLR,,0.00,WeatherDisplay:10.37,2013-06-16 04:35:00,
2013-06-15 21:40:00,55.8,10.2,30.04,SW,225,1.2,0.0,16,0.00,CLR,,0.00,WeatherDisplay:10.37,2013-06-16 04:40:00,
2013-06-15 21:45:00,55.6,10.0,30.04,SW,225,1.2,0.0,16,0.00,CLR,,0.00,WeatherDisplay:10.37,2013-06-16 04:45:00,
2013-06-15 21:51:00,55.6,13.9,30.04,SW,225,1.2,1.2,19,0.00,CLR,,0.00,WeatherDisplay:10.37,2013-06-16 04:51:00,
2013-06-15 21:56:00,55.2,14.8,30.04,SW,225,0.0,0.0,20,0.00,CLR,,0.00,WeatherDisplay:10.37,2013-06-16 04:56:00,
2013-06-15 22:01:00,55.0,16.8,30.04,SW,225,1.2,0.0,22,0.00,CLR,,0.00,WeatherDisplay:10.37,2013-06-16 05:01:00,
2013-06-15 22:06:00,54.5,20.3,30.05,SW,225,2.3,0.0,26,0.00,CLR,,0.00,WeatherDisplay:10.37,2013-06-16 05:06:00,
2013-06-15 22:11:00,54.1,22.5,30.05,SW,225,1.6,0.0,29,0.00,CLR,,0.00,WeatherDisplay:10.37,2013-06-16 05:11:00,
2013-06-15 22:16:00,54.0,24.0,30.04,SW,225,1.2,0.0,31,0.00,CLR,,0.00,WeatherDisplay:10.37,2013-06-16 05:16:00,
2013-06-15 22:21:00,53.8,26.0,30.05,SW,225,1.2,0.0,34,0.00,CLR,,0.00,WeatherDisplay:10.37,2013-06-16 05:21:00,
2013-06-15 22:26:00,53.6,27.3,30.05,SW,225,1.2,0.0,36,0.00,CLR,,0.00,WeatherDisplay:10.37,2013-06-16 05:26:00,
2013-06-15 22:31:00,53.4,27.8,30.05,SW,225,1.2,0.0,37,0.00,CLR,,0.00,WeatherDisplay:10.37,2013-06-16 05:31:00,
2013-06-15 22:36:00,53.2,29.5,30.05,SW,225,1.2,1.2,40,0.00,CLR,,0.00,WeatherDisplay:10.37,2013-06-16 05:36:00,
2013-06-15 22:42:00,52.9,29.2,30.05,SW,225,2.2,2.2,40,0.00,CLR,,0.00,WeatherDisplay:10.37,2013-06-16 05:42:00,
2013-06-15 22:47:00,52.3,29.9,30.05,SW,225,1.2,0.0,42,0.00,CLR,,0.00,WeatherDisplay:10.37,2013-06-16 05:47:00,
2013-06-15 22:52:00,52.2,29.7,30.05,SW,225,1.2,0.0,42,0.00,CLR,,0.00,WeatherDisplay:10.37,2013-06-16 05:52:00,
2013-06-15 22:58:00,51.6,29.8,30.05,South,180,1.2,0.0,43,0.00,CLR,,0.00,WeatherDisplay:10.37,2013-06-16 05:58:00,
2013-06-15 23:03:00,51.4,29.7,30.05,South,180,0.0,0.0,43,0.00,CLR,,0.00,WeatherDisplay:10.37,2013-06-16 06:03:00,
2013-06-15 23:08:00,51.1,29.3,30.05,South,180,0.0,0.0,43,0.00,CLR,,0.00,WeatherDisplay:10.37,2013-06-16 06:08:00,
2013-06-15 23:13:00,50.7,29.0,30.05,South,180,1.2,0.0,43,0.00,CLR,,0.00,WeatherDisplay:10.37,2013-06-16 06:13:00,
2013-06-15 23:18:00,50.4,28.7,30.05,South,180,0.0,0.0,43,0.00,CLR,,0.00,WeatherDisplay:10.37,2013-06-16 06:18:00,
2013-06-15 23:23:00,50.0,28.9,30.05,South,180,0.0,0.0,44,0.00,CLR,,0.00,WeatherDisplay:10.37,2013-06-16 06:23:00,
2013-06-15 23:28:00,49.8,29.3,30.05,SW,225,1.2,0.0,45,0.00,CLR,,0.00,WeatherDisplay:10.37,2013-06-16 06:28:00,
2013-06-15 23:33:00,49.6,29.7,30.06,SW,225,1.2,0.0,46,0.00,CLR,,0.00,WeatherDisplay:10.37,2013-06-16 06:33:00,
2013-06-15 23:39:00,49.3,29.4,30.05,SW,225,0.0,0.0,46,0.00,CLR,,0.00,WeatherDisplay:10.37,2013-06-16 06:39:00,
2013-06-15 23:44:00,49.1,29.7,30.05,SW,225,0.0,0.0,47,0.00,CLR,,0.00,WeatherDisplay:10.37,2013-06-16 06:44:00,
2013-06-15 23:49:00,48.7,29.4,30.05,SW,225,1.2,0.0,47,0.00,CLR,,0.00,WeatherDisplay:10.37,2013-06-16 06:49:00,
2013-06-15 23:54:00,48.6,29.7,30.06,SW,225,0.0,0.0,48,0.00,CLR,,0.00,WeatherDisplay:10.37,2013-06-16 06:54:00,
2013-06-15 23:59:00,48.2,29.4,30.06,SW,225,0.0,0.0,48,0.00,CLR,,0.00,WeatherDisplay:10.37,2013-06-16 06:59:00,